(345941) = 2007 RC284

Discovered at Kitt Peak on 2007-09-09 by Spacewatch.

Orbit

Orbit type: Main Belt

Note: WebGL enabled browser required.

epoch2024-03-31.0
epoch JD2460400.5
perihelion date2020-12-24.91287
perihelion JD2459208.41287
argument of perihelion (°)103.83708
ascending node (°)211.79245
inclination (°)11.14124
eccentricity0.1443662
perihelion distance (AU)2.3576726
Tisserand w.r.t. Jupiter3.3
ΔV w.r.t. Earth (km/sec)10.2
semimajor axis (AU)2.7554694
mean anomaly (°)256.87300
mean daily motion (°/day)0.21548170
aphelion distance (AU)3.153
period (years)4.57
P-vector [x]0.70519243
P-vector [y]-0.70195156
P-vector [z]-0.09983805
Q-vector [x]0.70166956
Q-vector [y]0.67071423
Q-vector [z]0.24042100
absolute magnitude16.82
phase slope0.15
uncertainty0
referenceMPEC 2024-F50
observations used217
oppositions9
arc length (days)6531
first opposition used2006
last opposition used2024
residual rms (arc-secs)0.71
perturbers coarse indicatorM-v
perturbers precise indicator003Ek
first observation date used2006-05-02.0
last observation date used2024-03-19.0
computer nameMPCLINUX
JD of orbit computation2456250.051217
perihelion JD uncertainty (days)3.1081E-03
argument of perihelion uncertainty (°)6.1475E-04
ascending node uncertainty (°)4.4388E-05
inclination uncertainty (°)2.2736E-05
eccentricity uncertainty 7.6363E-07
perihelion distance uncertainty (AU)1.5262E-06
Minimum Orbit Intersection Distances (in AU)
for orbit epoch: 2460400.5, reference: E2024-G51
Mercury1.95242
Venus1.65926
Earth1.37511
Mars1.04648
Jupiter2.21001
Saturn6.04743
Uranus15.3821
Neptune27.0197

Observations

220 total observations over interval: 2006 05 02.29469 – 2024 03 19.527238
These data are available for download (format description).

Date (UT) J2000 RA J2000 Dec Magn Location Ref
2006 05 02.29469 15 11 17.12 -13 15 21.7 20.6 V 691 – Steward Observatory, Kitt Peak-Spacewatch MPS 234332
2006 05 02.31204 15 11 16.25 -13 15 13.6 21.0 V 691 – Steward Observatory, Kitt Peak-Spacewatch MPS 234332
2006 05 02.32940 15 11 15.40 -13 15 05.6 20.9 V 691 – Steward Observatory, Kitt Peak-Spacewatch MPS 234332
2006 05 06.26883 15 08 04.89 -12 44 21.3 20.5 V 691 – Steward Observatory, Kitt Peak-Spacewatch MPS 234332
2006 05 06.28616 15 08 04.01 -12 44 13.3 20.5 V 691 – Steward Observatory, Kitt Peak-Spacewatch MPS 234332
2006 05 06.30348 15 08 03.18 -12 44 03.1 19.9 V 691 – Steward Observatory, Kitt Peak-Spacewatch MPS 234332
2007 09 09.40203 00 21 38.25 +12 51 35.8   691 – Steward Observatory, Kitt Peak-Spacewatch MPS 233448
2007 09 09.41967 00 21 37.56 +12 51 28.8   691 – Steward Observatory, Kitt Peak-Spacewatch MPS 233448
2007 09 09.43730 00 21 36.91 +12 51 21.7   691 – Steward Observatory, Kitt Peak-Spacewatch MPS 233448
2007 09 19.40556 00 14 58.29 +11 33 32.1 19.7 V 691 – Steward Observatory, Kitt Peak-Spacewatch MPS 233448
2007 09 19.42318 00 14 57.52 +11 33 22.9 19.9 V 691 – Steward Observatory, Kitt Peak-Spacewatch MPS 233448
2007 09 19.43842 00 14 56.85 +11 33 15.0 20.0 V 691 – Steward Observatory, Kitt Peak-Spacewatch MPS 233448
2007 10 12.20894 23 59 12.65 +07 49 18.0 20.3   704 – Lincoln Laboratory ETS, New Mexico MPS 331948
2007 10 12.21998 23 59 12.28 +07 49 11.0 20.4   704 – Lincoln Laboratory ETS, New Mexico MPS 331948
2007 10 12.23101 23 59 11.86 +07 49 04.4 20.4   704 – Lincoln Laboratory ETS, New Mexico MPS 331948
2007 10 12.24229 23 59 11.35 +07 48 59.0 20.6   704 – Lincoln Laboratory ETS, New Mexico MPS 331948
2007 10 13.19129 23 58 38.67 +07 39 26.1 18.6 V 703 – Catalina Sky Survey MPS 234332
2007 10 13.19848 23 58 38.56 +07 39 23.2 20.0 V 703 – Catalina Sky Survey MPS 234332
2007 10 13.20575 23 58 38.24 +07 39 18.2 19.6 V 703 – Catalina Sky Survey MPS 234332
2007 10 13.21293 23 58 38.06 +07 39 14.4 20.2 V 703 – Catalina Sky Survey MPS 234332
2007 11 11.11343 23 51 26.20 +03 46 41.3 21.2 V G96 – Mt. Lemmon Survey MPS 234332
2007 11 11.12188 23 51 26.24 +03 46 38.6 21.0 V G96 – Mt. Lemmon Survey MPS 234332
2007 11 11.13024 23 51 26.31 +03 46 35.5 20.6 V G96 – Mt. Lemmon Survey MPS 234332
2007 11 11.13852 23 51 26.31 +03 46 33.4 20.9 V G96 – Mt. Lemmon Survey MPS 234332
2010 06 06.237852 11 19 48.20 -00 31 33.4   C51 – WISE MPS 330822
2010 06 06.502459 11 19 58.039 -00 31 33.24   C51 – WISE MPS 904133
2010 06 06.634763 11 20 03.04 -00 31 35.2   C51 – WISE MPS 330822
2010 06 06.899243 11 20 13.19 -00 31 38.7   C51 – WISE MPS 330822
2010 06 06.899370 11 20 13.23 -00 31 39.0   C51 – WISE MPS 330822
2010 06 07.031547 11 20 18.204 -00 31 38.96   C51 – WISE MPS 904133
2010 06 07.031675 11 20 18.16 -00 31 40.0   C51 – WISE MPS 330822
2010 06 07.097763 11 20 20.70 -00 31 41.5   C51 – WISE MPS 330822
2010 06 07.230066 11 20 25.742 -00 31 43.10   C51 – WISE MPS 904133
2010 06 07.362370 11 20 30.76 -00 31 44.1   C51 – WISE MPS 330822
2010 06 07.494674 11 20 35.89 -00 31 48.1   C51 – WISE MPS 333637
2012 10 21.556213 03 49 33.601 +15 20 06.82 20.9 w F51 – Pan-STARRS 1, Haleakala MPS 437912
2012 10 21.572229 03 49 33.000 +15 20 00.40 20.9 w F51 – Pan-STARRS 1, Haleakala MPS 437912
2012 10 21.588290 03 49 32.372 +15 19 53.94 20.7 w F51 – Pan-STARRS 1, Haleakala MPS 437912
2012 11 07.367673 03 36 54.070 +13 22 36.01 20.5 w F51 – Pan-STARRS 1, Haleakala MPS 439526
2012 11 07.382851 03 36 53.261 +13 22 29.64 20.4 w F51 – Pan-STARRS 1, Haleakala MPS 439526
2012 11 07.398030 03 36 52.456 +13 22 23.26 20.5 w F51 – Pan-STARRS 1, Haleakala MPS 439526
2012 11 17.260487 03 28 13.34 +12 14 00.3 20.4 V H21 – Astronomical Research Observatory, Westfield MPS 443408
2012 11 17.271223 03 28 12.75 +12 13 55.9 20.3 V H21 – Astronomical Research Observatory, Westfield MPS 443408
2012 11 17.281961 03 28 12.17 +12 13 51.5 20.5 V H21 – Astronomical Research Observatory, Westfield MPS 443408
2012 11 17.292699 03 28 11.58 +12 13 47.3 20.4 V H21 – Astronomical Research Observatory, Westfield MPS 443408
2012 12 07.24042 03 12 41.528 +10 22 09.16 21.0 w F51 – Pan-STARRS 1, Haleakala MPS 447729
2012 12 07.25546 03 12 40.952 +10 22 05.27 20.9 w F51 – Pan-STARRS 1, Haleakala MPS 447729
2012 12 07.27046 03 12 40.315 +10 22 01.76 21.6 w F51 – Pan-STARRS 1, Haleakala MPS 447729
2012 12 07.28550 03 12 39.784 +10 21 57.71 20.9 w F51 – Pan-STARRS 1, Haleakala MPS 447729
2015 03 17.55171 14 21 21.213 -16 07 41.90 21.2 w F51 – Pan-STARRS 1, Haleakala MPS 592019
2015 03 17.56480 14 21 20.995 -16 07 38.64 21.3 w F51 – Pan-STARRS 1, Haleakala MPS 592019
2015 03 17.57782 14 21 20.759 -16 07 35.54 21.2 w F51 – Pan-STARRS 1, Haleakala MPS 592019
2015 03 19.51933 14 20 47.616 -15 59 18.96 21.2 w F51 – Pan-STARRS 1, Haleakala MPS 592019
2015 03 19.53612 14 20 47.284 -15 59 14.48 21.3 w F51 – Pan-STARRS 1, Haleakala MPS 592019
2015 03 19.56199 14 20 46.759 -15 59 07.91 21.1 w F51 – Pan-STARRS 1, Haleakala MPS 592019
2015 04 13.34357 14 06 58.55 -13 24 22.1 21.1 V G96 – Mt. Lemmon Survey MPS 600530
2015 04 13.34871 14 06 58.32 -13 24 19.7 20.7 V G96 – Mt. Lemmon Survey MPS 600530
2015 04 13.35386 14 06 58.09 -13 24 16.8 20.7 V G96 – Mt. Lemmon Survey MPS 600530
2015 04 13.35901 14 06 57.76 -13 24 14.9 20.6 V G96 – Mt. Lemmon Survey MPS 600530
2015 04 17.34607 14 03 54.81 -12 52 41.3 20.4 V G96 – Mt. Lemmon Survey MPS 600530
2015 04 17.35165 14 03 54.52 -12 52 38.9 20.9 V G96 – Mt. Lemmon Survey MPS 600530
2015 04 17.35724 14 03 54.28 -12 52 35.5 20.5 V G96 – Mt. Lemmon Survey MPS 600530
2015 04 17.36284 14 03 53.99 -12 52 33.2 20.8 V G96 – Mt. Lemmon Survey MPS 600530
2015 04 24.23216 13 58 27.74 -11 56 08.4 20.5 V G96 – Mt. Lemmon Survey MPS 603028
2015 04 24.23842 13 58 27.39 -11 56 06.0 20.6 V G96 – Mt. Lemmon Survey MPS 603028
2015 04 24.24469 13 58 27.09 -11 56 03.1 20.6 V G96 – Mt. Lemmon Survey MPS 603028
2015 04 24.48662 13 58 15.335 -11 54 01.06 20.4 w F51 – Pan-STARRS 1, Haleakala MPS 604530
2015 04 24.51085 13 58 14.137 -11 53 48.91 20.4 w F51 – Pan-STARRS 1, Haleakala MPS 604530
2015 05 10.22359 13 46 26.84 -09 46 28.2 20.7 V G96 – Mt. Lemmon Survey MPS 607199
2015 05 10.22818 13 46 26.66 -09 46 26.4 20.7 V G96 – Mt. Lemmon Survey MPS 607199
2015 05 10.23277 13 46 26.46 -09 46 24.3 20.6 V G96 – Mt. Lemmon Survey MPS 607199
2015 05 10.23736 13 46 26.26 -09 46 22.0 20.5 V G96 – Mt. Lemmon Survey MPS 607199
2015 05 18.36597 13 41 31.116 -08 48 07.42 20.6 w F52 – Pan-STARRS 2, Haleakala MPS 608478
2015 05 18.38063 13 41 30.613 -08 48 01.63 20.7 w F52 – Pan-STARRS 2, Haleakala MPS 608478
2015 05 18.39530 13 41 30.128 -08 47 55.83 20.7 w F52 – Pan-STARRS 2, Haleakala MPS 608478
2015 05 24.31383 13 38 42.545 -08 11 09.63 20.8 i F51 – Pan-STARRS 1, Haleakala MPS 609749
2015 05 24.32517 13 38 42.252 -08 11 05.85 20.9 i F51 – Pan-STARRS 1, Haleakala MPS 609749
2015 05 24.33657 13 38 41.940 -08 11 02.06 20.8 i F51 – Pan-STARRS 1, Haleakala MPS 609749
2015 05 24.34791 13 38 41.645 -08 10 58.16 20.6 i F51 – Pan-STARRS 1, Haleakala MPS 609749
2016 07 17.50670 23 03 58.609 +09 27 10.30 20.7 i F51 – Pan-STARRS 1, Haleakala MPS 721188
2016 07 17.51938 23 03 58.680 +09 27 12.88 20.7 i F51 – Pan-STARRS 1, Haleakala MPS 721188
2016 07 17.53207 23 03 58.723 +09 27 15.92 20.7 i F51 – Pan-STARRS 1, Haleakala MPS 721188
2016 08 29.60444 22 47 30.08 +08 08 18.5 20.3 R D29 – Purple Mountain Observatory, XuYi Station MPS 727425
2016 08 29.62124 22 47 29.34 +08 08 11.1 19.5 R D29 – Purple Mountain Observatory, XuYi Station MPS 727425
2016 08 29.63803 22 47 28.64 +08 08 02.7 19.9 R D29 – Purple Mountain Observatory, XuYi Station MPS 727425
2016 08 30.21602 22 47 03.86 +08 03 46.6 19.8 V G96 – Mt. Lemmon Survey MPS 727425
2016 08 30.22339 22 47 03.51 +08 03 42.8 19.9 V G96 – Mt. Lemmon Survey MPS 727425
2016 08 30.23082 22 47 03.20 +08 03 39.9 19.7 V G96 – Mt. Lemmon Survey MPS 727425
2016 08 30.23819 22 47 02.82 +08 03 36.6 19.9 V G96 – Mt. Lemmon Survey MPS 727425
2016 08 31.63864 22 46 02.34 +07 52 55.8 19.8 R D29 – Purple Mountain Observatory, XuYi Station MPS 727425
2016 08 31.65632 22 46 01.49 +07 52 47.5 19.8 R D29 – Purple Mountain Observatory, XuYi Station MPS 727425
